Regional Weather Roundup
Issued by NWS

Current Version | Previous Version | Text Only | Print | Product List | Glossary On
Versions: 1 2 3 4 5 6 7 8 9 10 11 12 13 14 15 16 17 18 19 20 21 22 23 24 25 26 27 28 29 30 31 32 33 34 35 36 37 38 39 40 41 42 43 44 45 46 47 48 49 50
000
ASUS44 KMEG 301610
RWRTN
TENNESSEE HOURLY STATE WEATHER ROUNDUP
NATIONAL WEATHER SERVICE MEMPHIS TN
1100 AM CDT TUE JUN 30 2015

TNZ002-004-019-021-049-052-054-088>092-301700-
WEST TENNESSEE

CITY           SKY/WX    TMP DP  RH WIND       PRES   REMARKS
MEMPHIS INTL   CLOUDY    82  73  74 SW5       29.97F
NWS MEMPHIS      N/A     81 N/A N/A MISG        N/A
JACKSON        SUNNY     82  70  66 W6        29.97S
DYERSBURG        N/A    N/A N/A N/A MISG        N/A
PARIS          SUNNY     79  66  65 W6        29.96R
LEXINGTON      SUNNY     81  70  69 SW6       29.96S
$$

TNZ008-025-027-028-033-062-065-066-301700-
NORTH MIDDLE TENNESSEE

CITY           SKY/WX    TMP DP  RH WIND       PRES   REMARKS
NASHVILLE      CLOUDY    82  72  71 W3        29.96S
CLARKSVILLE    MOSUNNY   81  71  71 W5        29.94S
SMYRNA         MOSUNNY   85  72  65 VRB6      29.96S HX  91
COOKEVILLE     PTSUNNY   79  73  83 SW6       29.98R
CROSSVILLE     MOSUNNY   75  62  64 CALM      30.03S
$$

TNZ061-075-076-078-094-096-097-301700-
SOUTH MIDDLE TENNESSEE

CITY           SKY/WX    TMP DP  RH WIND       PRES   REMARKS
FAYETTEVILLE   MOSUNNY   79  68  69 SW13      30.01S
TULLAHOMA      PTSUNNY   77  68  73 NW10      30.02R
WINCHESTER     MOSUNNY   81  70  69 W8        30.01R
MCMINNVILLE    SUNNY     81  72  74 SW8       29.99R
COLUMBIA       MOSUNNY   82  72  69 W8        29.96S
SHELBYVILLE    SUNNY     82  72  69 S10       29.99S
$$

TNZ017-018-042-046-047-301700-
NORTHEAST TENNESSEE

CITY           SKY/WX    TMP DP  RH WIND       PRES   REMARKS
TRI CITIES     CLOUDY    75  64  68 NW6       29.99F
ELIZABETHTON   MOSUNNY   73  63  68 CALM      30.00F
$$

TNZ012-013-036-069-073-074-301700-
CENTRAL EAST TENNESSEE

CITY           SKY/WX    TMP DP  RH WIND       PRES   REMARKS
KNOXVILLE      CLOUDY    77  68  73 SW14      29.98S
OAK RIDGE      CLOUDY    77  68  73 VRB5      29.99F
GATLINBURG     SUNNY     75  66  73 VRB6      29.97S
MORRISTOWN       N/A     79  68  69 W12       29.99F
$$

TNZ083-085-099-301700-
SOUTHEAST TENNESSEE

CITY           SKY/WX    TMP DP  RH WIND       PRES   REMARKS
CHATTANOOGA    PTSUNNY   80  70  71 S5        30.00R
$$

SKY/WX REPORTED AS FAIR MEANS FEW OR NO CLOUDS BELOW
12 THOUSAND FEET.



USA.gov is the U.S. government's official web portal to all federal, state and local government web resources and services.